Powrót do katalogu

STARLINK-35251

AktywnyŁącznośćSSO
NORAD 65604·PAYLOAD·🇺🇸 United States

Wystrzelony Sep 13, 2025 z Cape Canaveral Space Force Station

Loading…

Następne Przeloty (najbliższe 24 godziny)

TLE

ŚwieżeSource: CelesTrak SupGP

Epoka: Sep 14, 2026, 15:22 UTC

1 65604C 25207N   26257.64076389  .00044053  00000+0  26776-2 0  2574
2 65604  97.2843 320.3123 0001844  92.2541 276.3612 15.10534333    16

Śledź STARLINK-35251 w czasie rzeczywistym z AllMySat

Download on the App Store